This demonstration page uses our WeatherBlox Daily Observations layout. Learn more.

Left ArrowRight Arrow

Hourly Observations for January 12, 2018

Temp ( °F °C ) Dew Point ( °F °C ) Humidity (%) Winds ( mph kmh ) Pressure ( in mb ) Visibility ( mi km ) Precip ( " mm )
12:53 am 00:53 Clear 3 -16.1 -2 -18.9 79 79 WNW 9 15 30.46 1032 10 16 0.00 0.00
1:53 am 01:53 Clear 3 -16.1 -4 -20 72 72 NNW 8 13 30.44 1031 10 16 0.00 0.00
2:53 am 02:53 Clear 2 -16.7 -4 -20 76 76 NNW 10 17 30.45 1031 10 16 0.00 0.00
3:53 am 03:53 Clear 2 -16.7 -4 -20 76 76 N 13 20 30.44 1031 10 16 0.00 0.00
4:53 am 04:53 Clear 1 -17.2 -5 -20.6 75 75 N 12 19 30.43 1031 10 16 0.00 0.00
5:53 am 05:53 Mostly Clear 1 -17.2 -6 -21.1 72 72 NNE 14 22 30.42 1030 10 16 0.00 0.00
6:53 am 06:53 Clear 0 -17.8 -8 -22.2 69 69 NE 8 13 30.42 1030 10 16 0.00 0.00
7:53 am 07:53 Clear -1 -18.3 -9 -22.8 68 68 NNE 6 9 30.46 1032 10 16 0.00 0.00
8:53 am 08:53 Cloudy 1 -17.2 -9 -22.8 62 62 N 8 13 30.48 1032 10 16 0.00 0.00
9:53 am 09:53 Partly Cloudy 3 -16.1 -8 -22.2 60 60 NNE 6 9 30.50 1033 10 16 0.00 0.00
10:53 am 10:53 Cloudy 5 -15 -6 -21.1 60 60 N 5 7 30.53 1034 10 16 0.00 0.00
11:53 am 11:53 Cloudy 6 -14.4 -6 -21.1 57 57 NNE 7 11 30.52 1033 10 16 0.00 0.00
12:53 pm 12:53 Cloudy 7 -13.9 -5 -20.6 57 57 NE 9 15 30.49 1033 10 16 0.00 0.00
1:53 pm 13:53 Cloudy 8 -13.3 -2 -18.9 63 63 NE 10 17 30.48 1032 10 16 0.00 0.00
2:53 pm 14:53 Cloudy with Light Snow 9 -12.8 -2 -18.9 61 61 NE 12 19 30.52 1034 9 14 0.00 0.03
3:53 pm 15:53 Cloudy 9 -12.8 -2 -18.9 61 61 NNE 14 22 30.57 1035 10 16 0.00 0.03
4:53 pm 16:53 Cloudy 9 -12.8 -2 -18.9 61 61 NE 10 17 30.59 1036 10 16 0.00 0.00
5:53 pm 17:53 Cloudy 9 -12.8 -2 -18.9 61 61 NNE 13 20 30.63 1037 10 16 0.00 0.00
6:53 pm 18:53 Cloudy with Light Snow 8 -13.3 0 -17.8 69 69 N 13 20 30.68 1039 7 11 0.00 0.03
7:53 pm 19:53 Cloudy 8 -13.3 -1 -18.3 66 66 NNE 10 17 30.70 1040 10 16 0.00 0.03
8:53 pm 20:53 Cloudy 8 -13.3 0 -17.8 69 69 NNE 10 17 30.71 1040 10 16 0.00 0.00
9:53 pm 21:53 Cloudy 7 -13.9 0 -17.8 73 73 NNE 9 15 30.70 1040 10 16 0.00 0.00
10:53 pm 22:53 Cloudy 7 -13.9 1 -17.2 76 76 N 10 17 30.73 1041 10 16 0.00 0.00
11:53 pm 23:53 Cloudy 7 -13.9 -1 -18.3 70 70 N 10 17 30.73 1041 10 16 0.00 0.00

Powered by AerisWeather